星链-31443 (STARLINK-31443 )

导读

STARLINK-31443是美国太空探索技术公司(SpaceX)星链(Starlink)互联网星座的成员,于2024年4月2日发射入轨,属于星链星座第二代部署批次。星链计划旨在构建全球卫星互联网通信网络,该卫星承担着为全球偏远地区、海洋空域等提供宽带互联网接入服务的任务,是SpaceX推进低轨巨型星座组网的组成部分。

Basic Information
目录编号:
59393
目录名称:
STARLINK-31443
国际标识:
2024-062V
轨道中心:
EARTH
卫星名称:
星链-31443
卫星全名:
星链-31443 (STARLINK-31443 )
卫星状态:
在轨 (已飞行892 天)
发射日期:
2024-04-02 UTC
国别 :
美国 (US)
星等 :
--
This satellite is enrolled in the Space Conjunction Data Service (SCDS) and the current flight risk assessment level is: No High Risk
Orbit Information
数据来源 国际轨道数据 AOE轨道数据
星历时间 2026-09-11T21:38:14+0800
7小时前
查看轨道信息
2026-09-05T22:00:00+0800
6天前
查看轨道信息
半长轴 6840.873km 6840.827km
偏心率 0.0001537 0.0000914
轨道倾角 53.159° 53.162°
近地点辐角 106.462° 111.365°
升交点赤经 95.526° 123.507°
平近点角 253.655° 290.926°
近地点 461.684km 462.064km
远地点 463.788km 463.316km
周期 93.848分钟 93.847分钟
每日圈数 15.343891 15.344046
Detailed Information
固有亮度:
5
最大亮度:
0.3
卫星平台:
Starlink v2.0 mini
覆盖范围:
全球
运营商:
太空探索技术公司
运营商所在国:
美国
制造商(研发单位):
太空探索技术公司
制造商所在国:
美国
使用方式:
暂无
Satellite Introduction
星链(Starlink)计划是由太空探索技术公司(SpaceX)提出的一个巨型低轨卫星互联网星座项目,计划在2019年至2024年间在太空搭建由约1.2万颗卫星组成的“星链”网络,其中1584颗将部署在地球上空550千米处的近地轨道,并从2020年开始工作。该卫星仍在工作。
2D Orbit Map
3D Orbit Map
Orbit Altitude Analysis Chart
Orbit Inclination Analysis Chart
Orbit Comprehensive Analysis Chart
View Comprehensive Chart
Conjunction Data List
Event ID Objects TCA Miss Dist (km) Collision Risk Probability Collision Risk Index (CRI) Action
CDM_260913-023905-939306-202121
2026-09-13T
02:39:39+0000
0.611 km
远距离
7.890436E-5 中风险 0.73
CDM_260912-180305-939306-202121
2026-09-12T
18:03:48+0000
0.696 km
远距离
5.38054E-5 中风险 0.7
CDM_260912-193705-939306-202121
2026-09-12T
19:37:35+0000
2.871 km
极远距离
9.411055E-7 极低风险 0.34
Miss Distance Evolution Trend with All Objects
Collision Probability Evolution Trend with All Objects